| time (UTC) | temp F | wind direction | speed MPH | gust MPH | rain 1hr in | rain 24hr in | rain mn in | humidity % | barometer mb |
| 20260901221518 | 88 | 73 | 5.0 | 8.0 | 0.00 | 0.00 | 0.00 | 73 | 1014.3 |
| 20260901220015 | 88 | 78 | 4.0 | 8.0 | 0.00 | 0.00 | 0.00 | 73 | 1014.4 |
| 20260901214512 | 88 | 74 | 4.0 | 9.0 | 0.00 | 0.00 | 0.00 | 73 | 1014.7 |
| 20260901213010 | 88 | 65 | 3.0 | 10.0 | 0.00 | 0.00 | 0.00 | 73 | 1014.8 |
| 20260901211517 | 88 | 60 | 4.0 | 9.0 | 0.00 | 0.00 | 0.00 | 72 | 1014.6 |
| 20260901210029 | 88 | 62 | 5.0 | 10.0 | 0.00 | 0.00 | 0.00 | 72 | 1014.5 |
| 20260901204536 | 89 | 51 | 5.0 | 10.0 | 0.00 | 0.00 | 0.00 | 71 | 1014.7 |
| 20260901203045 | 89 | 56 | 8.0 | 12.0 | 0.00 | 0.00 | 0.00 | 71 | 1014.9 |
| 20260901201538 | 90 | 329 | 4.0 | 11.0 | 0.00 | 0.00 | 0.00 | 71 | 1015.0 |
| 20260901200054 | 90 | 84 | 5.0 | 10.0 | 0.00 | 0.00 | 0.00 | 72 | 1015.1 |
| 20260901194551 | 90 | 65 | 5.0 | 9.0 | 0.00 | 0.00 | 0.00 | 73 | 1015.4 |
| 20260901193058 | 90 | 317 | 5.0 | 9.0 | 0.00 | 0.00 | 0.00 | 71 | 1015.4 |
| 20260901191602 | 89 | 304 | 6.0 | 8.0 | 0.00 | 0.00 | 0.00 | 73 | 1015.7 |
| 20260901190054 | 89 | 298 | 5.0 | 7.0 | 0.00 | 0.00 | 0.00 | 75 | 1015.8 |
| 20260901184548 | 89 | 330 | 5.0 | 9.0 | 0.00 | 0.00 | 0.00 | 75 | 1016.1 |
| 20260901183100 | 88 | 52 | 3.0 | 9.0 | 0.00 | 0.00 | 0.00 | 79 | 1016.2 |
| 20260901183006 | 88 | 59 | 3.0 | 9.0 | 0.00 | 0.00 | 0.00 | 79 | 1016.2 |
| 20260901181515 | 88 | 311 | 8.0 | 12.0 | 0.00 | 0.00 | 0.00 | 77 | 1016.3 |
| 20260901180022 | 88 | 360 | 3.0 | 10.0 | 0.00 | 0.00 | 0.00 | 81 | 1016.4 |
| 20260901174533 | 87 | 326 | 4.0 | 11.0 | 0.00 | 0.00 | 0.00 | 81 | 1016.7 |
| 20260901173027 | 86 | 331 | 7.0 | 11.0 | 0.00 | 0.00 | 0.00 | 83 | 1017.0 |
| 20260901171544 | 86 | 331 | 6.0 | 11.0 | 0.00 | 0.00 | 0.00 | 84 | 1017.3 |
| 20260901170044 | 87 | 315 | 7.0 | 11.0 | 0.00 | 0.00 | 0.00 | 84 | 1017.5 |
| 20260901164533 | 86 | 355 | 6.0 | 10.0 | 0.00 | 0.00 | 0.00 | 84 | 1017.5 |
| 20260901163030 | 85 | 360 | 7.0 | 10.0 | 0.00 | 0.00 | 0.00 | 85 | 1017.6 |
| 20260901161535 | 85 | 342 | 6.0 | 10.0 | 0.00 | 0.00 | 0.00 | 85 | 1017.6 |
| 20260901160023 | 84 | 336 | 8.0 | 11.0 | 0.00 | 0.00 | 0.00 | 85 | 1017.6 |
| 20260901154531 | 85 | 317 | 4.0 | 11.0 | 0.00 | 0.00 | 0.00 | 86 | 1017.4 |
| 20260901153036 | 84 | 360 | 8.0 | 10.0 | 0.00 | 0.00 | 0.00 | 86 | 1017.3 |
| 20260901151537 | 84 | 342 | 6.0 | 10.0 | 0.00 | 0.00 | 0.00 | 87 | 1017.4 |
| 20260901150042 | 84 | 349 | 8.0 | 13.0 | 0.00 | 0.00 | 0.00 | 88 | 1017.3 |
| 20260901144541 | 83 | 323 | 6.0 | 10.0 | 0.00 | 0.00 | 0.00 | 89 | 1017.4 |
| 20260901143057 | 82 | 348 | 6.0 | 10.0 | 0.00 | 0.00 | 0.00 | 89 | 1017.6 |
| 20260901141605 | 82 | 339 | 5.0 | 9.0 | 0.00 | 0.00 | 0.00 | 90 | 1017.8 |
| 20260901140033 | 81 | 342 | 5.0 | 10.0 | 0.00 | 0.00 | 0.00 | 90 | 1017.7 |
| 20260901134540 | 81 | 345 | 5.0 | 9.0 | 0.00 | 0.00 | 0.00 | 90 | 1017.7 |
| 20260901133050 | 81 | 326 | 5.0 | 9.0 | 0.00 | 0.00 | 0.00 | 90 | 1017.7 |
| 20260901131543 | 81 | 317 | 6.0 | 9.0 | 0.00 | 0.00 | 0.00 | 90 | 1017.4 |
| 20260901130031 | 81 | 325 | 4.0 | 7.0 | 0.00 | 0.00 | 0.00 | 90 | 1017.2 |
| 20260901124535 | 81 | 333 | 4.0 | 8.0 | 0.00 | 0.00 | 0.00 | 90 | 1016.8 |
| 20260901123040 | 81 | 355 | 4.0 | 8.0 | 0.00 | 0.00 | 0.00 | 90 | 1016.7 |
| 20260901121557 | 81 | 332 | 4.0 | 9.0 | 0.00 | 0.00 | 0.00 | 90 | 1016.4 |
| 20260901120006 | 81 | 14 | 4.0 | 9.0 | 0.00 | 0.00 | 0.00 | 90 | 1016.3 |
| 20260901114511 | 80 | 355 | 5.0 | 9.0 | 0.00 | 0.00 | 0.00 | 90 | 1016.2 |
| 20260901113017 | 81 | 25 | 0.0 | 7.0 | 0.00 | 0.00 | 0.00 | 89 | 1016.3 |
| 20260901111510 | 81 | 355 | 5.0 | 8.0 | 0.00 | 0.00 | 0.00 | 89 | 1016.2 |
| 20260901110058 | 80 | 355 | 4.0 | 6.0 | 0.00 | 0.00 | 0.00 | 89 | 1016.2 |
| 20260901104547 | 80 | 22 | 1.0 | 4.0 | 0.00 | 0.00 | 0.00 | 88 | 1016.1 |
| 20260901103045 | 80 | 37 | 1.0 | 4.0 | 0.00 | 0.00 | 0.00 | 88 | 1016.0 |
| 20260901101547 | 82 | 38 | 4.0 | 6.0 | 0.00 | 0.00 | 0.00 | 88 | 1016.0 |
| 20260901100043 | 82 | 335 | 2.0 | 5.0 | 0.00 | 0.00 | 0.00 | 88 | 1015.9 |
| 20260901094557 | 81 | 355 | 2.0 | 4.0 | 0.00 | 0.00 | 0.00 | 88 | 1016.0 |
| 20260901093102 | 82 | 75 | 0.0 | 5.0 | 0.00 | 0.00 | 0.00 | 87 | 1016.3 |
| 20260901093002 | 82 | 75 | 2.0 | 5.0 | 0.00 | 0.00 | 0.00 | 87 | 1016.2 |
| 20260901091517 | 83 | 331 | 2.0 | 5.0 | 0.00 | 0.00 | 0.00 | 87 | 1016.3 |
| 20260901090024 | 83 | 335 | 1.0 | 5.0 | 0.00 | 0.00 | 0.00 | 87 | 1016.4 |
| 20260901084523 | 83 | 281 | 1.0 | 8.0 | 0.00 | 0.00 | 0.00 | 87 | 1016.3 |
| 20260901083025 | 83 | 311 | 3.0 | 8.0 | 0.00 | 0.00 | 0.00 | 87 | 1016.5 |
| 20260901081527 | 82 | 295 | 3.0 | 6.0 | 0.00 | 0.00 | 0.00 | 87 | 1016.4 |
| 20260901080034 | 82 | 313 | 1.0 | 6.0 | 0.00 | 0.00 | 0.00 | 87 | 1016.6 |
| 20260901074542 | 82 | 300 | 3.0 | 6.0 | 0.00 | 0.00 | 0.00 | 87 | 1016.6 |
| 20260901073034 | 82 | 288 | 4.0 | 7.0 | 0.00 | 0.00 | 0.00 | 87 | 1016.6 |
| 20260901071538 | 82 | 309 | 2.0 | 5.0 | 0.00 | 0.00 | 0.00 | 87 | 1016.6 |
| 20260901070046 | 81 | 175 | 0.0 | 2.0 | 0.00 | 0.00 | 0.00 | 86 | 1016.9 |
| 20260901064554 | 81 | 175 | 0.0 | 2.0 | 0.00 | 0.00 | 0.00 | 86 | 1016.8 |
| 20260901063006 | 81 | 175 | 0.0 | 1.0 | 0.00 | 0.00 | 0.00 | 86 | 1016.8 |
| 20260901061518 | 81 | 111 | 0.0 | 4.0 | 0.00 | 0.00 | 0.00 | 86 | 1016.8 |
| 20260901060024 | 81 | 97 | 4.0 | 6.0 | 0.00 | 0.00 | 0.00 | 87 | 1016.9 |
| 20260901054532 | 81 | 130 | 2.0 | 5.0 | 0.00 | 0.00 | 0.00 | 86 | 1016.9 |
| 20260901053033 | 81 | 132 | 1.0 | 3.0 | 0.00 | 0.00 | 0.00 | 86 | 1016.8 |
| 20260901051537 | 81 | 140 | 1.0 | 3.0 | 0.00 | 0.00 | 0.00 | 86 | 1016.6 |
| 20260901050026 | 81 | 140 | 1.0 | 4.0 | 0.00 | 0.00 | 0.00 | 86 | 1016.5 |
| 20260901044509 | 81 | 140 | 2.0 | 5.0 | 0.00 | 0.00 | 0.00 | 86 | 1016.4 |
| 20260901043015 | 82 | 147 | 3.0 | 6.0 | 0.00 | 0.00 | 0.00 | 86 | 1016.4 |
| 20260901041520 | 82 | 141 | 4.0 | 6.0 | 0.00 | 0.00 | 0.00 | 86 | 1016.6 |
| 20260901040023 | 82 | 113 | 4.0 | 7.0 | 0.00 | 0.00 | 0.00 | 85 | 1016.5 |
| 20260901034547 | 83 | 139 | 4.0 | 7.0 | 0.00 | 0.00 | 0.00 | 85 | 1016.5 |
| 20260901033102 | 83 | 146 | 4.0 | 8.0 | 0.00 | 0.00 | 0.00 | 85 | 1016.3 |
| 20260901031607 | 83 | 137 | 4.0 | 7.0 | 0.00 | 0.00 | 0.00 | 84 | 1016.1 |
| 20260901030059 | 83 | 134 | 5.0 | 7.0 | 0.00 | 0.00 | 0.00 | 84 | 1016.0 |
| 20260901030001 | 83 | 133 | 5.0 | 7.0 | 0.00 | 0.00 | 0.00 | 84 | 1016.0 |
| 20260901024508 | 83 | 133 | 5.0 | 7.0 | 0.00 | 0.00 | 0.00 | 84 | 1015.7 |
| 20260901023020 | 84 | 142 | 3.0 | 5.0 | 0.00 | 0.00 | 0.00 | 84 | 1015.4 |
| 20260901021519 | 84 | 140 | 1.0 | 5.0 | 0.00 | 0.00 | 0.00 | 83 | 1015.3 |
| 20260901020002 | 85 | 141 | 3.0 | 7.0 | 0.00 | 0.00 | 0.00 | 83 | 1015.4 |
| 20260901014517 | 85 | 147 | 4.0 | 7.0 | 0.00 | 0.00 | 0.00 | 82 | 1015.3 |
| 20260901013028 | 85 | 149 | 5.0 | 8.0 | 0.00 | 0.00 | 0.00 | 81 | 1015.2 |
| 20260901011516 | 85 | 136 | 5.0 | 7.0 | 0.00 | 0.00 | 0.00 | 80 | 1015.2 |
| 20260901010049 | 86 | 155 | 5.0 | 9.0 | 0.00 | 0.00 | 0.00 | 80 | 1015.1 |
| 20260901004605 | 86 | 144 | 2.0 | 6.0 | 0.00 | 0.00 | 0.00 | 79 | 1015.3 |
| 20260901003003 | 86 | 139 | 3.0 | 8.0 | 0.00 | 0.00 | 0.00 | 78 | 1015.4 |
| 20260901001513 | 86 | 134 | 5.0 | 7.0 | 0.00 | 0.00 | 0.00 | 77 | 1015.3 |
| 20260901000016 | 87 | 122 | 4.0 | 8.0 | 0.00 | 0.00 | 0.00 | 77 | 1015.4 |
| 20260831234526 | 87 | 140 | 5.0 | 9.0 | 0.00 | 0.00 | 0.00 | 77 | 1015.4 |
| 20260831233028 | 87 | 130 | 6.0 | 12.0 | 0.00 | 0.00 | 0.00 | 76 | 1015.4 |
| 20260831231536 | 88 | 138 | 7.0 | 11.0 | 0.00 | 0.00 | 0.00 | 76 | 1015.4 |
| 20260831230029 | 88 | 134 | 6.0 | 11.0 | 0.00 | 0.00 | 0.00 | 76 | 1015.3 |
| 20260831224519 | 89 | 140 | 7.0 | 12.0 | 0.00 | 0.00 | 0.00 | 75 | 1015.5 |
| 20260831223025 | 88 | 109 | 6.0 | 15.0 | 0.00 | 0.00 | 0.00 | 75 | 1015.6 |